SPAINSAT NG I

Last updated on Sat Dec 13 2025 00:02:51 GMT+0000 (Coordinated Universal Time)

1 62852U 25021A 25346.28217251 .00000113 00000+0 00000+0 0 9994 2 62852 0.2919 87.0271 0002813 218.4797 266.7032 0.99782069 2113
UTC large
Height (km)
Speed (km/s)
/
Latitude / Longitude
Inclination (degrees)
Orbital Period (minutes)
Azimuth
Elevation
Range (km)
Doppler Factor

Next 0 passes for location: London (51.5072 / 0.1276)

Sorry there are no passes over London.